Regional Weather Roundup
Issued by NWS

Home | Current Version | Previous Version | Text Only | Print | Product List | Glossary Off
Versions: 1 2 3 4 5 6 7 8 9 10 11 12 13 14 15 16 17 18 19 20 21 22 23 24 25 26 27 28 29 30 31 32 33 34 35 36 37 38 39 40 41 42 43 44 45 46 47 48 49 50

000
ASUS43 KMKX 182011
RWRWI

WISCONSIN REGIONAL WEATHER ROUNDUP
NATIONAL WEATHER SERVICE MILWAUKEE/SULLIVAN WI
200 PM CST SAT NOV 18 2017

NOTE: "FAIR" INDICATES FEW OR NO CLOUDS BELOW 12,000 FEET WITH NO
SIGNIFICANT WEATHER AND/OR OBSTRUCTIONS TO VISIBILITY.

WIZ001-002-006>008-014>016-023>028-182100-
NORTHWEST WISCONSIN

CITY           SKY/WX    TMP DP  RH WIND       PRES   REMARKS
SUPERIOR ARPT  CLOUDY    30  19  64 NW12      29.84R WCI  20
ASHLAND        CLOUDY    31  22  69 NW13      29.78R WCI  21
HAYWARD        PTSUNNY   32  20  61 VRB5G17   29.77R WCI  27
SIREN          SUNNY     32  18  55 N14       29.83R WCI  22
CUMBERLAND     SUNNY     32  21  64 NW13      29.78R WCI  22
RICE LAKE      MOSUNNY   35  23  61 NW13      29.79R WCI  26
CHETEK         SUNNY     35  24  63 NW7       29.77R WCI  29
LADYSMITH      MOSUNNY   35  26  70 NW13      29.75S WCI  26
EAU CLAIRE     MOSUNNY   39  25  57 NW13G22   29.75R WCI  31
MENOMONIE      SUNNY     37  24  58 NW15G23   29.78S WCI  28
NEW RICHMOND   PTSUNNY   34  22  62 NW16G24   29.82R WCI  23
OSCEOLA        SUNNY     34  21  58 NW20G26   29.86R WCI  23
$$

WIZ003>005-009-010-017-018-182100-
NORTH CENTRAL WISCONSIN

CITY           SKY/WX    TMP DP  RH WIND       PRES   REMARKS
MANITOWISH WTR CLOUDY    29  29 100 N7        29.69R WCI  22
ARBOR VITAE    PTSUNNY   32  30  92 NW12G18   29.68R WCI  23
WOODRUFF       PTSUNNY   32  30  92 NW12G18   29.68R WCI  23
RHINELANDER    CLOUDY    33  29  85 VRB6      29.67R WCI  28
EAGLE RIVER    CLOUDY    32  30  93 NW9       29.66R WCI  24
LAND O LAKES   CLOUDY    32  29  90 NW5       29.68R WCI  27
PHILLIPS       CLOUDY    31  27  86 NW8       29.71R WCI  23
TOMAHAWK       CLOUDY    32  28  83 NW9       29.69R WCI  24
MEDFORD        CLOUDY    34  27  77 NW13G18   29.68S WCI  25
MERRILL        CLOUDY    35  29  78 N9        29.68R WCI  28
$$

WIZ029-030-035-036-043>047-182100-
CENTRAL WISCONSIN

CITY           SKY/WX    TMP DP  RH WIND       PRES   REMARKS
WAUSAU         CLOUDY    36  28  73 NW10G20   29.65S WCI  28
MOSINEE        CLOUDY    36  30  80 N15G22    29.67S WCI  26
MARSHFIELD     CLOUDY    38  29  70 N12       29.67R WCI  30
STEVENS POINT  CLOUDY    35  29  78 NW10G18   29.66S WCI  27
WAUPACA        CLOUDY    40  31  69 NW10G18   29.64S WCI  34
WAUTOMA        CLOUDY    38  30  73 NW15G21   29.64F WCI  29
WISC RAPIDS    CLOUDY    38  30  73 N13       29.68S WCI  30
CAMP DOUGLAS   PTSUNNY   39  30  70 NW16      29.68F WCI  30
$$

WIZ011>013-019>022-031-037>040-048>050-182100-
NORTHEAST WISCONSIN

CITY           SKY/WX    TMP DP  RH WIND       PRES   REMARKS
ANTIGO         CLOUDY    32  29  88 N14       29.64S WCI  22
SHAWANO        CLOUDY    39  31  73 N12       29.63R WCI  32
OCONTO         CLOUDY    38  31  73 N12G17    29.61R WCI  31
STURGEON BAY   CLOUDY    39  33  79 N21G28    29.57S WCI  29
GREEN BAY      CLOUDY    39  33  79 NW13      29.60F WCI  31
MANITOWOC      CLOUDY    39  33  79 N21G26    29.57S WCI  29
APPLETON       CLOUDY    37  30  75 N14G20    29.60S WCI  29
CLINTONVILLE   CLOUDY    37  28  70 N14       29.63R WCI  29
OSHKOSH        CLOUDY    38  32  79 N12       29.60S WCI  30
$$

WIZ032>034-041-042-053>061-182100-
SOUTHWEST WISCONSIN

CITY           SKY/WX    TMP DP  RH WIND       PRES   REMARKS
LA CROSSE      MOSUNNY   44  31  60 NW16      29.73R
SPARTA         MOSUNNY   40  31  70 NW9G18    29.72S WCI  34
VIROQUA        MOSUNNY   39  34  82 N14G20    29.68F WCI  31
BOSCOBEL       MOSUNNY   42  31  64 N12G18    29.70S
PRAIRIE DU CHI CLOUDY    42  31  67 NW10G20   29.71S
PLATTEVILLE    CLOUDY    38  36  89 NW17      29.66R WCI  29
$$

WIZ056-057-062-063-064-067-068-182100-
SOUTH CENTRAL WISCONSIN

CITY           SKY/WX    TMP DP  RH WIND       PRES   REMARKS
REEDSBURG      CLOUDY    38  32  79 NW14G24   29.65F WCI  29
BARABOO/DELLS  CLOUDY    37  32  79 NW13G21   29.64F WCI  29
LONE ROCK      CLOUDY    40  32  73 NW13G22   29.67F WCI  32
MINERAL POINT  CLOUDY    37  37 100 NW16G22   29.65R WCI  28
MADISON        CLOUDY    37  33  85 N13G25    29.62S WCI  29
MIDDLETON      CLOUDY    38  34  82 NW14G22   29.63S WCI  30
WATERTOWN      CLOUDY    37  36  94 NW14G20   29.58F WCI  29
MONROE         CLOUDY    36  34  93 N14G25    29.61R WCI  27
JANESVILLE     CLOUDY    39  39 100 N15G24    29.58F WCI  31
$$

WIZ051-052-058>065-066-070>072-182100-
SOUTHEAST WISCONSIN

CITY           SKY/WX    TMP DP  RH WIND       PRES   REMARKS
MILWAUKEE      CLOUDY    40  35  83 NW22G29   29.54R WCI  30
WAUKESHA       CLOUDY    36  32  87 NW17G31   29.57R WCI  25
MILWAUKEE/TIMM CLOUDY    37  32  81 N20G29    29.56R WCI  27
RACINE         CLOUDY    39  36  89 N18G30    29.55R WCI  30
BURLINGTON     CLOUDY    39  39  99 N23G30    29.55F WCI  29
KENOSHA        CLOUDY    39  34  82 N15G29    29.53R WCI  31
FOND DU LAC    CLOUDY    39  32  76 N15       29.60F WCI  31
SHEBOYGAN      CLOUDY    38  35  89 N16G23    29.56S WCI  29
WEST BEND      CLOUDY    36  34  93 N17       29.57S WCI  25
JUNEAU         CLOUDY    37  32  83 NW15G24   29.59F WCI  28
$$

LSZ147-162-182100-
LAKE SUPERIOR

STATION/POSITION TIME  TEMP    WIND        PRES    WAVE
                       AIR SEA DIR/SP/G            HT/PER
                 (UTC) (F)     (DEG/KT/KT) (MB)    (FT/S)
DEVILS ISLAND    2000   30     300/ 14/ 16 1009.1R
SAXON HARBOR     1940   33     300/ 11/ 15 1007.5R
$$

LMZ867-665-643>646-182100-
LAKE MICHIGAN

STATION/POSITION TIME  TEMP    WIND        PRES    WAVE
                       AIR SEA DIR/SP/G            HT/PER
                 (UTC) (F)     (DEG/KT/KT) (MB)    (FT/S)
N MID LAKE BUOY  1950   42 48  330/ 23/ 29 1000.5F   4/ 5
NORTHPORT PIER   2002   41     350/ 22/ 23 1001.4
SHEBOYGAN LAKESH 2000   39     330/ 19/ 25 1001.2R
PORT WASHINGTON  1940   40     320/  9/ 20 1002.0R
MILWAUKEE LAKESH 1950   40     340/ 20/ 24   N/A
S MID LAKE BUOY  1850   43 49  360/ 27/ 33  996.5F   7/ 6
KENOSHA   LAKESH 2000   39     340/ 21/ 26 1000.0
$$

TC  - TEMPERATURE IN CELSIUS
VSB - VISIBILITY IN STATUTE MILES
WCI - WIND CHILL INDEX
HX  - HEAT INDEX




USA.gov is the U.S. government's official web portal to all federal, state and local government web resources and services.